Location: High Cliff State Park
(44.1557°N, 88.2948°W)
Time: 04:26:07
(UTC-05:00)

Amateur Radio Satellites - All Passes

Search period start: 31 July 2014 03:56
Search period end: 01 August 2014 03:56
Location: High Cliff State Park, 44.1557°N, 88.2948°W

Satellite Date Start Highest point End Downlink Frequencies (MHz)
Time Altitude Azimuth
AO-Echo 31 Jul 04:04:49 04:09:20 33° 293° (WNW) 04:13:42 ?
Oscar 19 31 Jul 04:06:36 04:10:06 19° 299° (WNW) 04:13:37 437.125 CW, 437.150 USB
Gurwin Techsat 1B 31 Jul 04:15:02 04:20:20 68° 287° (WNW) 04:25:35 435.225 FM
ISS 31 Jul 04:19:35 04:22:52 49° 25° (NNE) 04:26:09 145.800 FM
Uosat F 31 Jul 04:25:07 04:29:17 26° 95° (E) 04:33:26 435.120 FM
OPAL 31 Jul 04:31:28 04:36:11 45° 259° (WSW) 04:40:57 ?
Oscar 16 31 Jul 04:37:41 04:38:29 10° 305° (NW) 04:39:17 437.025 USB, Beacon 2401.1428
JAS-1B 31 Jul 04:54:55 05:03:37 44° 299° (WNW) 05:11:13 435.800 - 435.900 CW/SSB
KITSAT 1 31 Jul 04:59:23 05:06:00 29° 106° (ESE) 05:12:38 435.175 FM
ITAMSAT 1 31 Jul 05:01:48 05:04:16 14° 303° (WNW) 05:06:44 435.822 SSB
STRAND 1 31 Jul 05:21:21 05:24:31 17° 59° (ENE) 05:27:42 ?
TMSAT-1 31 Jul 05:29:55 05:33:55 22° 298° (WNW) 05:37:55 436.925 FM
AO-7 31 Jul 05:30:06 05:38:28 76° 107° (ESE) 05:46:46 29.400 - 29.500 MHz
MaSat-1 31 Jul 05:30:33 05:35:26 36° 53° (NE) 05:40:07 437.345 MHz
ISS 31 Jul 05:56:33 05:59:27 27° 222° (SW) 06:02:20 145.800 FM
JAS-2 31 Jul 05:58:00 06:01:35 17° 87° (E) 06:04:57 435.800 - 435.900 CW/SSB, 435.910 FM
Gurwin Techsat 1B 31 Jul 05:58:15 05:59:18 11° 306° (NW) 06:00:22 435.225 FM
Uosat F 31 Jul 06:03:31 06:08:12 40° 292° (WNW) 06:12:50 435.120 FM
JAS-1B 31 Jul 06:48:12 06:51:29 12° 322° (NW) 06:54:39 435.800 - 435.900 CW/SSB
KITSAT 1 31 Jul 06:52:41 07:00:46 70° 306° (NW) 07:08:53 435.175 FM
Hamsat 31 Jul 06:54:58 06:59:18 74° 102° (ESE) 07:03:38 145.90 MHz
STRAND 1 31 Jul 06:58:00 07:03:08 73° 257° (WSW) 07:08:17 ?
MaSat-1 31 Jul 07:07:58 07:12:46 36° 253° (WSW) 07:17:16 437.345 MHz
SO-67 31 Jul 07:21:05 07:23:42 20° 94° (E) 07:26:18 435.3500 MHz FM
AO-7 31 Jul 07:23:47 07:30:31 29° 307° (NW) 07:37:14 29.400 - 29.500 MHz
Saudisat 1A 31 Jul 07:30:25 07:34:51 85° 123° (ESE) 07:39:18 436.775 MHz
Sapphire 31 Jul 07:30:47 07:33:46 15° 34° (NE) 07:36:44 437.095 MHz 1200 baud AX-25 AFSK
JAS-2 31 Jul 07:41:33 07:47:27 68° 288° (WNW) 07:52:45 435.800 - 435.900 CW/SSB, 435.910 FM
PCSat 31 Jul 08:03:16 08:07:35 23° 42° (NE) 08:11:53 145.825 MHz
Hamsat 31 Jul 08:32:55 08:34:41 12° 299° (WNW) 08:36:28 145.90 MHz
KITSAT 1 31 Jul 08:51:29 08:57:44 24° 331° (NNW) 09:04:01 435.175 FM
SO-67 31 Jul 08:53:50 08:56:45 25° 290° (WNW) 08:59:39 435.3500 MHz FM
Saudisat 1A 31 Jul 09:12:06 09:15:01 17° 324° (NW) 09:17:58 436.775 MHz
Sapphire 31 Jul 09:12:54 09:18:18 63° 56° (NE) 09:23:40 437.095 MHz 1200 baud AX-25 AFSK
HO-68 31 Jul 09:21:28 09:27:59 37° 97° (E) 09:34:27 435.675 MHz FM
UKube-1 31 Jul 09:21:38 09:24:43 19° 93° (E) 09:27:47 145.840 MHz, 145.915 MHz
JAS-2 31 Jul 09:29:37 09:31:14 11° 310° (NW) 09:32:49 435.800 - 435.900 CW/SSB, 435.910 FM
PCSat 31 Jul 09:46:06 09:51:31 69° 243° (WSW) 09:56:53 145.825 MHz
Oscar 11 31 Jul 10:03:31 10:07:18 28° 95° (E) 10:11:03 145.825 FM, Beacon 2401.500 USB
FUNcube-1 31 Jul 10:32:15 10:35:28 21° 94° (E) 10:38:42 145.950 - 145.970 MHz USB
KITSAT 1 31 Jul 10:52:27 10:56:43 15° 1° (N) 11:01:00 435.175 FM
UKube-1 31 Jul 10:57:00 11:01:08 43° 290° (WNW) 11:05:14 145.840 MHz, 145.915 MHz
Sapphire 31 Jul 10:57:21 11:01:13 20° 254° (WSW) 11:05:05 437.095 MHz 1200 baud AX-25 AFSK
RS-15 31 Jul 10:58:10 10:59:47 10° 93° (E) 11:01:24 29.354 - 29.394 USB, Beacon 29.352 USB
SO-50 31 Jul 11:07:17 11:10:00 16° 110° (ESE) 11:12:46 436.795 FM
HO-68 31 Jul 11:09:03 11:15:49 47° 296° (WNW) 11:22:32 435.675 MHz FM
Oscar 11 31 Jul 11:39:42 11:43:26 28° 292° (WNW) 11:47:08 145.825 FM, Beacon 2401.500 USB
JAS-1B 31 Jul 12:03:46 12:08:35 15° 42° (NE) 12:13:29 435.800 - 435.900 CW/SSB
Oscar 19 31 Jul 12:08:04 12:11:00 16° 59° (ENE) 12:13:56 437.125 CW, 437.150 USB
FUNcube-1 31 Jul 12:08:10 12:11:58 35° 290° (WNW) 12:15:49 145.950 - 145.970 MHz USB
Oscar 16 31 Jul 12:35:17 12:39:33 27° 65° (ENE) 12:43:50 437.025 USB, Beacon 2401.1428
SO-50 31 Jul 12:45:36 12:50:03 63° 308° (NW) 12:54:36 436.795 FM
KITSAT 1 31 Jul 12:49:10 12:55:37 25° 31° (NNE) 13:02:01 435.175 FM
UOSAT-12 31 Jul 12:53:55 12:56:25 15° 109° (ESE) 12:58:57 437.025 FM, 437.400 FM
RS-15 31 Jul 12:58:46 13:09:30 57° 114° (ESE) 13:20:02 29.354 - 29.394 USB, Beacon 29.352 USB
HO-68 31 Jul 13:00:50 13:01:48 10° 317° (NW) 13:02:45 435.675 MHz FM
ITAMSAT 1 31 Jul 13:02:02 13:06:02 23° 62° (ENE) 13:10:02 435.822 SSB
Uribyol 2 31 Jul 13:20:01 13:24:38 34° 66° (ENE) 13:29:16 436.500 FM
AO-27 31 Jul 13:21:11 13:25:49 33° 66° (ENE) 13:30:27 436.795 MHz FM
TMSAT-1 31 Jul 13:34:45 13:37:35 15° 58° (ENE) 13:40:26 436.925 FM
AO-Echo 31 Jul 13:39:51 13:44:57 49° 70° (ENE) 13:50:03 ?
Oscar 19 31 Jul 13:44:36 13:49:42 78° 257° (WSW) 13:54:52 437.125 CW, 437.150 USB
JAS-1B 31 Jul 13:47:56 13:56:42 51° 64° (ENE) 14:06:07 435.800 - 435.900 CW/SSB
Gurwin Techsat 1B 31 Jul 13:58:43 14:03:19 31° 65° (ENE) 14:07:56 435.225 FM
Oscar 16 31 Jul 14:13:56 14:18:43 40° 262° (W) 14:23:33 437.025 USB, Beacon 2401.1428
Saudisat 1A 31 Jul 14:17:09 14:20:12 18° 37° (NE) 14:23:14 436.775 MHz
SO-50 31 Jul 14:29:18 14:31:33 13° 329° (NNW) 14:33:51 436.795 FM
UOSAT-12 31 Jul 14:31:21 14:35:58 73° 306° (NW) 14:40:41 437.025 FM, 437.400 FM
AO-7 31 Jul 14:39:59 14:46:46 29° 53° (NE) 14:53:33 29.400 - 29.500 MHz
ITAMSAT 1 31 Jul 14:40:07 14:45:11 52° 260° (W) 14:50:17 435.822 SSB
KITSAT 1 31 Jul 14:44:19 14:52:27 76° 55° (NE) 15:00:30 435.175 FM
Uribyol 2 31 Jul 14:59:26 15:04:05 33° 264° (W) 15:08:45 436.500 FM
AO-27 31 Jul 15:00:35 15:05:17 34° 263° (W) 15:10:00 436.795 MHz FM
TMSAT-1 31 Jul 15:11:28 15:16:47 86° 256° (WSW) 15:22:08 436.925 FM
RS-15 31 Jul 15:11:29 15:22:06 50° 319° (NW) 15:32:40 29.354 - 29.394 USB, Beacon 29.352 USB
AO-Echo 31 Jul 15:19:43 15:23:56 24° 267° (W) 15:28:10 ?
Gurwin Techsat 1B 31 Jul 15:38:16 15:43:10 38° 263° (W) 15:48:07 435.225 FM
JAS-1B 31 Jul 15:38:28 15:47:08 48° 265° (W) 15:56:37 435.800 - 435.900 CW/SSB
Uosat F 31 Jul 15:39:39 15:44:24 43° 69° (ENE) 15:49:09 435.120 FM
Saudisat 1A 31 Jul 15:55:54 16:00:20 79° 237° (WSW) 16:04:43 436.775 MHz
JAS-2 31 Jul 16:12:30 16:16:15 15° 53° (NE) 16:19:51 435.800 - 435.900 CW/SSB, 435.910 FM
UOSAT-12 31 Jul 16:14:11 16:16:58 15° 327° (NNW) 16:19:46 437.025 FM, 437.400 FM
AO-7 31 Jul 16:30:27 16:38:49 76° 253° (WSW) 16:47:14 29.400 - 29.500 MHz
OPAL 31 Jul 16:39:26 16:44:13 40° 100° (E) 16:49:01 ?
KITSAT 1 31 Jul 16:40:46 16:47:03 26° 255° (WSW) 16:53:20 435.175 FM
TMSAT-1 31 Jul 16:55:59 16:57:28 11° 273° (W) 16:58:58 436.925 FM
Uosat F 31 Jul 17:19:15 17:23:20 25° 266° (W) 17:27:27 435.120 FM
RS-15 31 Jul 17:29:11 17:37:53 26° 351° (N) 17:46:40 29.354 - 29.394 USB, Beacon 29.352 USB
Hamsat 31 Jul 17:49:44 17:53:51 62° 74° (ENE) 17:58:02 145.90 MHz
JAS-2 31 Jul 17:52:32 18:00:09 65° 71° (ENE) 18:07:11 435.800 - 435.900 CW/SSB, 435.910 FM
OPAL 31 Jul 18:18:37 18:22:56 29° 297° (WNW) 18:27:17 ?
AO-7 31 Jul 18:28:30 18:32:57 15° 273° (W) 18:37:25 29.400 - 29.500 MHz
STRAND 1 31 Jul 19:07:24 19:12:01 34° 97° (E) 19:16:36 ?
SO-67 31 Jul 19:27:45 19:31:11 60° 260° (W) 19:34:38 435.3500 MHz FM
Hamsat 31 Jul 19:28:37 19:30:16 12° 271° (W) 19:31:55 145.90 MHz
SO-50 31 Jul 19:35:35 19:39:41 28° 43° (NE) 19:43:50 436.795 FM
JAS-2 31 Jul 19:39:07 19:45:30 28° 267° (W) 19:51:33 435.800 - 435.900 CW/SSB, 435.910 FM
RS-15 31 Jul 19:45:06 19:54:44 33° 26° (NNE) 20:04:32 29.354 - 29.394 USB, Beacon 29.352 USB
HO-68 31 Jul 19:51:56 19:58:10 34° 60° (ENE) 20:04:25 435.675 MHz FM
UKube-1 31 Jul 20:18:48 20:22:06 21° 64° (ENE) 20:25:24 145.840 MHz, 145.915 MHz
STRAND 1 31 Jul 20:46:39 20:51:09 32° 294° (WNW) 20:55:38 ?
MaSat-1 31 Jul 20:59:38 21:03:50 84° 116° (ESE) 21:08:43 437.345 MHz
Oscar 11 31 Jul 21:00:14 21:03:53 28° 68° (ENE) 21:07:33 145.825 FM, Beacon 2401.500 USB
SO-50 31 Jul 21:15:53 21:20:27 47° 241° (WSW) 21:25:04 436.795 FM
UOSAT-12 31 Jul 21:20:02 21:23:56 25° 41° (NE) 21:27:48 437.025 FM, 437.400 FM
FUNcube-1 31 Jul 21:30:34 21:33:51 22° 66° (ENE) 21:37:05 145.950 - 145.970 MHz USB
HO-68 31 Jul 21:38:37 21:45:35 54° 259° (W) 21:52:36 435.675 MHz FM
UKube-1 31 Jul 21:53:56 21:58:03 40° 261° (W) 22:02:12 145.840 MHz, 145.915 MHz
RS-15 31 Jul 21:57:53 22:08:58 82° 54° (NE) 22:20:27 29.354 - 29.394 USB, Beacon 29.352 USB
Oscar 11 31 Jul 22:36:16 22:40:00 29° 264° (W) 22:43:46 145.825 FM, Beacon 2401.500 USB
MaSat-1 31 Jul 22:39:04 22:41:57 16° 318° (NW) 22:45:01 437.345 MHz
ISS 31 Jul 22:39:17 22:42:27 42° 141° (SE) 22:45:38 145.800 FM
PCSat 31 Jul 22:50:07 22:51:52 12° 102° (ESE) 22:53:38 145.825 MHz
UOSAT-12 31 Jul 22:59:46 23:04:25 56° 240° (WSW) 23:08:59 437.025 FM, 437.400 FM
FUNcube-1 31 Jul 23:06:07 23:10:04 35° 263° (W) 23:13:58 145.950 - 145.970 MHz USB
Sapphire 31 Jul 23:56:22 00:01:24 42° 113° (ESE) 00:06:29 437.095 MHz 1200 baud AX-25 AFSK
RS-15 01 Aug 00:11:19 00:20:10 29° 256° (WSW) 00:29:20 29.354 - 29.394 USB, Beacon 29.352 USB
ISS 01 Aug 00:16:04 00:19:13 36° 340° (NNW) 00:22:22 145.800 FM
PCSat 01 Aug 00:28:59 00:34:23 83° 119° (ESE) 00:39:51 145.825 MHz
JAS-1B 01 Aug 01:36:22 01:39:52 13° 77° (ENE) 01:43:11 435.800 - 435.900 CW/SSB
Sapphire 01 Aug 01:40:03 01:44:55 34° 312° (NW) 01:49:50 437.095 MHz 1200 baud AX-25 AFSK
AO-Echo 01 Aug 01:47:44 01:50:03 13° 88° (E) 01:52:19 ?
ISS 01 Aug 01:53:52 01:56:34 22° 360° (N) 01:59:16 145.800 FM
Oscar 19 01 Aug 01:54:54 01:59:35 33° 96° (E) 02:04:14 437.125 CW, 437.150 USB
PCSat 01 Aug 02:14:30 02:18:29 20° 320° (NW) 02:22:30 145.825 MHz
OPAL 01 Aug 02:20:48 02:22:49 13° 54° (NE) 02:24:50 ?
Oscar 16 01 Aug 02:23:35 02:28:44 64° 102° (ESE) 02:33:52 437.025 USB, Beacon 2401.1428
ITAMSAT 1 01 Aug 02:51:22 02:56:24 50° 100° (E) 03:01:24 435.822 SSB
Uribyol 2 01 Aug 03:09:53 03:15:05 79° 104° (ESE) 03:20:14 436.500 FM
AO-27 01 Aug 03:11:23 03:16:36 78° 104° (ESE) 03:21:46 436.795 MHz FM
JAS-1B 01 Aug 03:23:16 03:32:33 65° 100° (E) 03:40:20 435.800 - 435.900 CW/SSB
AO-Echo 01 Aug 03:24:24 03:29:28 76° 286° (WNW) 03:34:19 ?
TMSAT-1 01 Aug 03:26:07 03:30:54 34° 96° (E) 03:35:39 436.925 FM
ISS 01 Aug 03:30:48 03:33:56 35° 20° (NNE) 03:37:04 145.800 FM
Oscar 19 01 Aug 03:34:17 03:38:53 33° 294° (WNW) 03:43:28 437.125 CW, 437.150 USB
Uosat F 01 Aug 03:48:26 03:49:44 11° 88° (E) 03:51:03 435.120 FM
